Location: Ettringen
(48.1054°N, 10.6545°E)
Time: 20:30:26
(UTC+00:00)

ARIANE 5 R/B - Pass Details

Date: 18 November 2025
Orbit: 747 x 792 km, 98.8° (Epoch: 10 December)

Event Time Altitude Azimuth Distance (km) Brightness Sun altitude
Rises 16:03:50 0° 143° (SE) 3,180 5.6 -5.0°
Reaches altitude 10° 16:06:12 10° 137° (SE) 2,261 4.8 -5.4°
Maximum altitude 16:10:52 43° 67° (ENE) 1,047 2.8 -6.1°
Drops below altitude 10° 16:15:36 10° 357° (N) 2,286 4.8 -6.8°
Sets 16:17:59 0° 351° (N) 3,221 5.6 -7.2°
